Theta_e
308 308 308 309 309 309 310 310 310 311 311 311 312 313 313 312 315 323 327 324 322 320 317 318 327 328 326 325 326 340 350 353 347 346 342 339 344 344 344 345 350 352 351 350 352
307 307 308 308 309 309 309 310 310 311 311 311 314 315 314 312 326 330 329 326 324 319 316 325 328 324 322 325 338 343 346 347 343 336 334 336 344 344 342 341 342 355 352 351 352
306 307 307 308 308 309 309 309 310 310 311 312 316 318 314 314 336 333 326 322 321 316 319 326 327 326 326 328 340 338 336 336 338 333 332 332 343 344 343 342 341 355 354 352 352
305 306 306 307 307 308 308 309 310 310 311 314 319 320 313 326 341 327 318 318 317 319 325 329 326 326 328 330 340 338 336 337 333 333 334 334 333 344 345 345 340 351 351 352 353
305 305 306 307 307 308 308 309 310 310 311 315 320 318 314 332 336 321 319 318 320 326 328 327 326 326 328 330 337 336 337 335 332 334 334 335 336 338 346 345 341 350 352 352 351
304 305 306 306 307 307 307 308 309 310 312 316 320 315 329 332 333 326 320 321 327 328 325 327 328 327 328 330 332 335 333 333 333 334 336 335 338 341 346 345 347 350 353 352 352
304 305 305 306 306 307 308 309 309 310 312 316 320 317 327 325 332 330 327 326 327 324 323 328 328 326 325 326 331 333 333 331 332 333 335 334 336 339 343 351 354 355 354 353 353
305 305 305 306 306 307 308 309 309 310 313 317 320 322 330 326 327 330 328 326 326 324 323 328 328 326 327 326 328 329 329 330 334 334 333 333 335 338 337 345 351 355 356 356 353
304 305 305 306 306 307 308 309 310 311 314 317 327 328 331 326 324 328 328 327 326 324 324 327 326 325 326 325 323 325 325 328 336 334 333 330 335 337 335 341 346 350 351 357 353
303 304 305 306 306 307 308 310 312 318 323 328 327 327 328 327 324 323 327 327 326 324 324 326 325 324 323 322 323 325 327 329 338 336 333 330 329 336 339 341 349 351 354 357 355
302 303 305 306 307 307 308 311 326 329 323 327 326 324 325 327 325 325 328 327 325 324 322 325 324 323 323 323 326 326 325 326 329 330 329 330 330 330 332 335 352 352 355 357 356
301 303 305 306 307 307 307 317 321 320 319 321 323 328 326 327 326 326 328 326 325 324 323 323 324 324 327 328 326 324 324 324 326 330 329 330 329 328 331 334 353 354 357 358 357
301 302 304 306 307 309 311 318 320 319 319 321 321 322 324 325 326 325 325 326 325 325 325 323 327 328 328 326 325 324 324 324 328 328 326 329 331 331 331 336 356 355 354 357 359
301 303 305 307 311 313 318 321 319 319 320 322 320 321 323 323 322 324 326 326 325 325 325 325 327 329 328 328 324 323 328 329 328 326 326 329 327 329 334 337 337 358 355 359 359
300 303 305 307 307 312 316 316 318 319 328 324 321 324 321 321 324 324 327 325 325 326 328 328 328 327 328 325 325 326 330 331 331 326 326 327 326 331 334 340 341 348 352 361 361
301 303 306 314 313 313 315 315 318 322 326 324 323 321 320 320 322 324 326 325 325 326 330 328 329 329 327 326 327 328 328 329 328 325 326 332 331 335 336 340 341 344 345 359 360
302 304 307 308 316 314 315 316 320 323 322 322 322 321 319 320 321 323 328 325 325 330 331 332 329 329 328 327 327 329 326 328 329 329 332 333 333 336 336 337 337 335 359 356 360
303 307 307 307 308 314 316 318 324 322 320 322 323 322 322 321 321 322 328 328 326 328 330 332 331 327 327 327 329 328 325 327 333 331 333 335 334 338 336 336 335 349 352 355 356
307 313 312 309 307 313 316 319 323 325 322 322 322 324 322 322 322 321 326 328 328 327 330 332 333 332 328 328 327 328 327 327 327 329 328 329 340 336 339 340 340 343 343 355 355
312 312 316 315 313 313 316 319 320 321 322 321 322 324 325 322 321 321 325 327 329 328 327 328 333 329 329 329 328 328 328 325 327 335 336 333 342 340 343 341 340 341 341 350 353
315 319 316 316 315 315 316 316 319 320 321 321 320 322 325 325 323 322 323 327 328 328 327 326 330 331 331 328 328 328 325 328 323 325 328 331 334 340 341 341 341 339 341 350 352
317 324 319 315 315 315 314 316 316 318 319 320 321 322 324 326 329 324 325 328 327 328 328 328 329 331 331 330 328 327 327 330 333 332 333 333 339 338 338 338 343 345 347 346 349
317 324 317 315 313 313 315 315 315 316 317 321 321 321 321 325 329 332 328 324 324 328 330 330 328 328 327 328 329 332 331 328 327 330 329 334 339 337 341 339 342 348 351 344 349
316 325 318 316 314 315 318 321 320 318 319 320 321 321 321 325 325 328 328 325 324 326 334 330 334 336 328 334 332 332 332 331 328 330 329 331 339 339 342 336 333 338 343 342 348
319 325 321 317 315 314 316 320 321 320 320 320 322 321 321 326 328 325 326 326 324 323 325 329 332 333 331 329 328 329 331 331 331 330 330 327 340 342 340 337 337 335 343 341 342
319 317 316 319 323 317 320 317 322 322 321 319 321 322 321 325 325 332 333 334 335 327 325 327 332 332 334 332 330 331 330 331 329 328 327 336 344 337 339 337 339 341 343 343 341
313 311 315 320 321 321 321 322 320 321 323 322 321 324 323 330 329 327 326 328 333 334 336 331 333 331 332 333 332 332 332 333 333 334 334 330 339 339 339 343 341 335 334 342 341
Wind_Speed
14 14 14 14 14 15 16 16 17 18 18 19 19 19 17 17 15 5 4 3 5 10 14 15 17 15 17 5 8 7 6 8 8 16 5 8 22 19 15 11 8 4 16 21 30
15 15 15 15 15 16 16 17 18 20 20 20 20 19 17 18 6 8 9 10 9 9 10 12 11 11 4 5 3 4 5 10 10 11 4 7 22 11 5 9 8 17 20 26 27
16 16 16 16 17 16 17 18 19 20 21 22 20 19 16 14 4 3 6 7 5 4 7 13 18 9 8 3 2 3 4 0 7 4 7 7 14 10 13 3 5 19 19 17 22
18 18 18 18 18 18 18 18 19 19 21 21 20 18 17 1 3 3 3 2 2 1 9 12 8 6 4 6 6 6 9 3 4 2 7 7 6 8 13 9 14 15 20 14 14
19 20 19 19 19 19 20 19 19 19 19 19 18 17 5 3 5 5 5 4 4 4 10 10 9 7 6 7 4 3 9 11 6 3 5 0 7 5 11 13 15 14 19 15 11
20 20 20 19 20 21 21 20 19 18 18 17 16 14 3 5 3 5 5 4 4 13 18 9 6 9 7 8 5 6 8 7 9 8 2 10 4 9 10 19 16 16 16 15 14
21 22 21 20 22 23 22 20 19 17 16 14 13 9 4 9 2 3 8 9 10 11 7 10 8 8 10 10 9 7 3 9 9 11 4 7 5 5 8 22 21 19 17 15 13
21 22 22 21 22 24 23 21 20 17 14 12 11 3 6 6 8 9 9 16 7 10 13 11 6 6 4 8 8 5 6 6 6 3 6 8 6 7 8 17 18 19 17 14 10
21 22 22 22 22 25 24 22 21 18 13 9 6 1 7 5 6 12 12 14 13 8 12 10 5 5 7 5 6 6 7 7 2 9 4 3 3 7 10 11 11 13 9 14 13
22 22 22 22 22 24 25 23 19 16 3 4 8 5 5 8 11 15 12 14 3 6 6 6 3 3 5 1 6 6 2 6 5 5 5 4 6 6 9 11 14 11 11 16 15
22 23 22 21 20 21 27 10 2 2 3 7 4 6 5 9 12 11 14 3 9 5 6 8 1 7 13 10 4 7 8 7 3 5 4 2 6 10 7 9 14 12 11 14 14
22 23 22 20 19 18 17 4 6 8 8 12 16 17 24 9 5 7 13 5 7 7 8 6 9 12 9 2 5 6 7 9 8 3 6 5 8 11 5 7 18 15 12 14 9
22 23 23 20 19 10 8 12 11 14 4 8 13 10 12 5 8 9 10 8 8 9 10 9 9 11 2 4 6 5 5 8 4 7 9 4 8 8 6 8 16 14 11 13 14
22 23 22 23 8 11 6 5 9 15 3 6 7 13 15 7 8 22 20 8 6 11 10 8 12 6 3 4 4 6 8 2 6 6 4 2 6 8 6 8 10 16 9 15 17
21 22 19 17 14 7 10 13 11 7 2 7 10 12 8 10 2 7 21 8 12 12 5 10 6 5 4 7 7 8 5 6 6 6 5 11 4 7 5 6 5 13 6 17 16
21 21 21 4 9 9 14 14 9 1 6 1 5 8 10 10 14 7 8 6 8 11 10 10 8 3 6 8 5 6 5 6 5 1 3 6 3 4 2 4 2 20 8 17 16
23 21 19 12 5 6 11 6 1 4 6 5 6 9 10 9 15 11 10 8 7 3 6 9 8 3 6 5 4 2 4 3 5 3 6 6 3 7 6 11 9 14 18 15 16
26 19 14 19 11 7 10 1 3 8 12 8 6 12 14 10 13 15 10 8 10 8 5 7 6 10 7 6 5 6 8 5 3 2 5 3 5 2 14 13 23 6 14 15 15
25 8 5 10 12 4 1 3 6 5 2 13 14 11 10 14 8 11 10 11 11 12 8 3 6 9 11 6 6 4 3 8 2 4 4 4 3 3 13 9 12 12 17 16 15
15 6 14 8 9 9 1 5 8 9 12 10 11 5 2 13 13 12 10 10 12 14 10 9 6 5 8 3 0 2 3 4 4 2 5 5 1 4 7 8 7 7 11 10 14
4 3 15 16 13 1 4 7 6 15 16 6 9 7 6 12 9 9 13 11 16 15 12 9 6 9 1 3 6 3 4 3 4 4 3 3 5 7 12 11 8 10 11 14 15
6 3 12 17 2 3 4 3 5 15 17 3 6 6 6 8 7 9 8 2 6 17 7 10 5 4 8 7 11 9 9 7 5 6 3 4 5 6 5 14 7 14 27 12 15
4 3 8 11 3 6 6 11 16 18 18 2 5 6 7 5 5 9 4 7 14 8 4 3 2 2 9 9 7 4 5 2 1 2 4 1 5 3 6 10 14 14 15 11 14
3 2 1 3 5 6 5 7 13 15 13 5 10 8 7 4 5 6 9 6 6 6 6 4 3 4 6 2 3 3 6 6 4 2 4 4 4 1 4 2 3 6 6 13 11
3 3 4 3 5 9 7 9 14 11 5 4 8 7 7 4 8 5 3 6 3 3 4 4 2 5 7 8 9 12 10 11 8 10 6 9 9 6 4 3 2 2 11 10 12
3 4 6 8 9 8 7 10 12 12 6 6 5 9 7 3 5 6 8 6 4 3 3 3 2 4 5 6 9 15 18 16 11 8 6 14 7 6 4 7 9 3 3 6 9
10 11 4 8 7 3 4 6 5 8 8 7 12 3 4 12 10 8 5 5 3 3 5 2 2 1 5 7 9 7 8 3 5 13 7 3 9 11 8 9 2 4 7 5 9
Wind_Direction
14 12 11 5 1 357 356 350 346 346 345 346 341 333 331 330 325 290 249 232 263 296 305 306 302 273 256 259 229 134 98 238 231 247 145 129 97 104 115 89 60 45 141 145 144
10 6 1 356 354 353 349 345 344 343 342 342 340 331 332 332 336 247 255 251 278 286 301 300 317 324 284 268 335 115 180 198 215 272 80 139 128 128 68 95 85 97 117 140 146
5 1 354 352 350 347 344 343 343 340 340 339 340 330 336 333 292 168 236 265 263 267 266 297 288 289 284 222 208 134 211 183 289 318 6 25 102 142 130 172 184 143 143 153 151
0 355 350 347 344 343 340 341 340 339 337 340 337 331 334 39 46 197 163 207 131 232 273 278 262 270 278 288 130 147 251 215 211 128 21 30 331 143 157 186 162 154 147 155 161
355 350 346 343 339 338 336 336 337 336 337 337 336 335 344 260 242 157 162 155 169 270 243 265 296 285 307 325 149 262 207 224 244 256 167 241 18 2 143 138 148 150 150 159 160
351 347 344 340 334 333 333 333 331 330 334 335 337 337 337 287 149 156 159 176 239 246 278 273 316 331 300 312 6 349 356 346 317 292 63 80 9 52 128 150 157 166 155 165 165
348 346 341 337 333 330 326 325 323 323 328 328 333 346 280 243 187 143 178 253 271 267 296 312 355 348 331 321 314 282 317 288 247 253 142 117 34 141 153 148 151 156 166 171 164
346 344 340 333 329 325 322 319 315 311 318 319 320 340 259 207 199 192 218 253 252 269 282 313 336 301 271 292 322 298 258 267 298 206 166 106 258 230 229 144 158 164 176 168 150
345 342 336 331 329 325 319 315 307 300 308 305 325 220 271 212 231 217 226 241 219 251 264 281 308 237 307 243 309 288 251 241 321 277 283 128 203 237 185 158 157 157 147 138 139
344 343 335 330 329 324 318 316 301 299 288 282 271 321 259 229 193 212 216 248 275 241 266 242 245 241 301 352 239 276 265 323 146 258 226 194 308 187 160 143 146 135 133 136 140
343 341 335 329 325 323 325 339 359 25 217 229 176 257 297 220 135 199 199 186 270 264 248 258 170 243 242 242 287 1 341 336 267 157 121 62 280 280 196 149 142 141 133 140 141
339 339 333 325 317 313 312 272 15 308 300 274 261 252 260 159 196 229 201 187 218 244 239 293 230 250 269 60 23 341 325 305 305 169 118 204 258 270 226 162 149 145 141 144 134
337 337 333 323 315 313 268 271 330 317 278 277 229 239 238 171 243 216 189 205 241 227 253 220 254 229 335 355 342 310 262 282 300 358 345 329 285 262 268 122 145 147 146 152 139
336 335 334 330 310 325 279 356 329 333 312 259 202 228 208 177 248 243 189 188 229 240 245 241 253 224 308 279 260 269 270 240 16 8 270 32 282 293 182 127 113 147 159 138 140
333 331 328 323 300 301 347 347 338 308 316 211 200 171 169 180 258 211 184 187 243 259 228 256 248 256 194 256 230 249 15 6 341 319 351 306 27 296 87 74 109 89 223 148 145
328 327 322 0 295 283 313 326 311 21 243 231 115 177 185 201 238 235 149 175 233 254 273 251 303 237 194 237 279 338 342 341 304 250 333 270 129 301 72 159 197 163 197 146 146
323 318 300 270 216 342 359 327 79 230 282 216 156 170 209 187 224 236 175 184 212 213 284 301 242 240 268 244 221 137 6 325 336 10 221 251 61 242 205 199 173 184 144 144 138
321 308 280 255 250 313 293 25 226 233 254 296 267 185 193 206 210 240 169 185 225 243 216 221 268 220 188 212 196 199 175 165 266 203 245 291 249 303 82 60 45 62 135 123 130
328 322 246 262 213 218 356 201 204 231 187 298 309 188 192 211 189 218 185 198 202 223 217 258 264 267 187 164 177 270 284 219 209 320 2 234 47 331 19 32 76 67 333 134 144
330 299 246 188 162 194 182 253 236 272 308 327 309 148 238 201 210 189 197 204 222 213 206 253 321 357 131 116 310 171 252 14 350 304 278 319 142 215 36 44 86 157 258 221 154
323 268 126 151 157 179 207 230 271 275 286 318 345 343 342 310 236 197 207 210 208 232 207 212 174 280 70 110 220 285 272 253 159 154 197 298 278 205 184 159 172 215 319 205 160
303 267 178 154 133 213 238 247 262 281 303 308 315 296 302 340 311 205 191 249 271 208 224 197 160 240 236 223 200 206 215 175 126 290 248 174 275 134 141 109 95 337 348 227 155
298 271 179 197 218 240 254 248 258 268 277 228 275 305 311 346 350 359 55 32 31 51 44 309 100 29 333 341 336 56 317 210 86 84 262 136 261 167 130 176 142 117 279 351 138
274 246 287 198 259 280 301 288 269 257 261 345 298 309 305 315 310 328 351 29 53 84 59 53 69 138 203 226 241 301 309 302 194 147 253 233 115 320 100 73 44 182 192 33 345
234 298 14 210 234 234 254 287 302 268 189 284 328 274 302 357 328 280 304 326 5 37 54 81 57 28 330 341 328 314 290 265 258 233 192 249 147 209 222 182 340 75 43 19 358
322 351 339 296 294 183 236 259 282 309 140 232 264 295 315 299 303 24 7 40 34 46 76 31 322 16 308 306 303 300 300 301 300 280 288 102 103 164 21 27 49 6 346 280 338
355 343 298 285 309 286 326 310 295 315 308 273 198 276 291 5 347 342 13 18 46 34 28 73 106 95 272 310 308 314 261 312 335 15 321 278 168 165 149 157 59 206 215 252 326